SCP
0 0 0 0 0 0 0 0 0 0 0 0 0 0 0 0 0 0 0 0 0 0 0 0 0 0 0 0 0 0 0 0
0 0 0 0 0 0 0 0 0 0 0 0 0 0 0 0 0 0 0 0 0 0 0 0 0 0 0 0 0 0 0 0
0 0 0 0 0 0 0 0 0 0 0 0 0 0 0 0 0 0 0 0 0 0 0 0 0 0 0 0 0 0 0 0
0 0 0 0 0 0 0 0 0 0 0 0 0 0 0 0 0 0 0 0 0 0 0 0 0 0 0 0 0 0 0 0
0 0 0 0 0 0 0 0 0 0 0 0 0 0 0 0 0 0 0 0 0 0 0 0 0 0 0 0 0 0 0 0
0 0 0 0 0 0 0 0 0 0 0 0 0 0 0 0 0 0 0 0 0 0 0 0 0 0 0 0 0 0 0 0
0 0 0 0 0 0 0 0 0 0 0 0 0 0 0 0 0 0 0 0 0 0 0 0 0 0 0 0 0 0 0 0
0 0 0 0 0 0 0 0 0 0 0 0 0 0 0 0 0 0 0 0 0 0 0 0 0 0 0 0 0 0 0 0
0 0 0 0 0 0 0 0 0 0 0 0 0 0 0 0 0 0 0 0 0 0 0 0 0 0 0 0 0 0 0 0
0 0 0 0 0 0 0 0 0 0 0 0 0 0 0 0 0 0 0 0 0 0 0 0 0 0 0 0 0 0 0 0
0 0 0 0 0 0 0 0 0 0 0 0 0 0 0 0 0 0 0 0 0 0 0 0 0 0 0 -0 -0 -0 -0 -0
0 0 0 0 0 0 0 0 0 0 0 0 0 0 0 0 0 0 0 0 0 0 0 0 -0 -0 -0 -0 -0 -0 -0 -0
0 0 0 0 0 0 0 0 0 0 0 0 0 0 0 0 0 0 -0 -0 -0 -0 0 -0 0 -0 -0 -0 -0 -0 -0 -0
0 0 0 0 0 0 0 0 0 0 0 0 0 0 -0 -0 -0 -0 -0 -0 -0 -0 -0 -0 -0 -0 -0 -0 -0 -0 -0 -0
0 0 0 0 0 0 0 0 0 0 -0 -0 -0 -0 -0 -0 -0 -0 -0 -0 -0 -0 -0 -0 -0 -0 -0 -0 -0 -0 -0 -0
0 0 0 0 0 0 0 0 0 0 -0 -0 -0 -0 -0 -0 -0 -0 0 0 0 0 0 0 0 0 0 0 0 0 0 0
0 0 0 0 0 0 0 0 -0 -0 -0 -0 -0 -0 -0 -0 -0 0 0 0 0 0 0 0 0 0 0 0 0 0 0 0
0 0 0 0 0 0 0 -0 -0 -0 -0 -0 -0 -0 -0 -0 -0 -0 -0 0 0 0 0 0 0 0 0 0 0 0 0 0
0 0 0 0 0 0 0 0 0 0 -0 -0 -0 -0 -0 -0 -0 0 0 -0 0 0 0 0 0 0 0 0 0 0 0 0
0 0 0 0 0 0 0 0 0 0 -0 -0 -0 -0 -0 -0 -0 0 0 0 0 0 0 0 0 0 0 0 0 0 0 0
Wind_Speed_500mb
42 41 40 41 42 41 40 40 39 34 30 26 22 17 12 8 5 5 8 12 18 23 30 36 41 41 42 48 48 51 60 64
45 40 38 36 34 34 33 31 30 28 26 22 20 17 12 9 5 4 7 12 18 22 26 30 31 34 39 45 48 52 55 62
42 36 31 27 26 24 22 19 17 15 12 9 8 6 6 7 10 13 17 20 25 28 30 32 35 37 41 45 47 51 59 64
35 28 23 18 14 12 11 9 8 6 6 9 12 15 18 22 26 30 34 37 40 41 42 43 43 43 42 45 48 52 59 61
29 21 15 10 3 3 7 10 13 16 17 20 25 28 33 38 43 48 54 58 60 62 62 59 56 50 50 50 52 57 59 62
25 17 11 4 4 9 18 16 15 23 24 28 34 39 42 47 51 57 63 67 70 70 67 65 64 60 56 55 58 63 68 69
20 13 7 4 5 9 14 19 23 25 31 30 40 44 47 51 57 62 64 64 65 65 65 62 60 59 60 62 64 67 73 80
15 8 5 6 10 15 18 22 26 31 36 41 42 42 43 45 48 51 53 55 57 59 62 64 64 63 62 60 65 71 75 80
10 4 5 8 11 14 18 22 26 29 33 36 40 45 48 47 49 51 55 58 62 62 63 67 68 68 69 72 75 78 80 83
8 5 4 8 12 15 18 21 23 26 31 38 45 48 52 55 58 60 62 62 64 66 69 70 69 67 67 70 75 80 85 88
7 3 3 8 11 14 18 24 29 34 39 43 48 52 56 58 61 64 68 72 73 74 72 73 74 70 70 70 72 83 90 94
8 4 4 9 13 17 23 29 34 40 44 47 51 56 61 63 66 71 74 76 77 81 81 81 81 83 80 76 70 72 83 90
9 5 6 12 16 21 27 33 38 43 48 52 57 63 68 73 74 76 79 84 87 90 92 88 87 86 89 88 71 65 70 84
9 6 9 17 24 30 35 41 46 51 57 62 65 69 72 78 82 85 84 87 93 96 100 102 97 97 93 91 76 67 72 82
7 7 12 19 26 34 42 50 57 63 67 71 76 79 80 81 83 87 88 88 89 92 98 105 106 102 97 92 99 97 90 89
3 9 16 24 32 40 48 54 60 65 70 74 78 82 86 85 86 87 84 81 81 80 85 94 110 101 84 93 100 104 100 97
9 16 22 27 34 41 48 54 60 67 71 74 79 82 85 89 95 85 85 82 77 73 72 83 85 100 92 90 94 100 99 101
15 21 26 30 35 42 47 54 60 68 72 76 78 81 84 86 89 101 96 85 79 77 73 73 83 86 93 93 96 96 91 87
18 23 29 33 38 42 49 55 60 66 69 73 75 77 80 83 87 89 96 104 99 86 81 78 76 79 86 84 90 97 89 82
20 25 30 36 40 46 51 56 59 62 65 67 69 71 72 75 78 81 86 90 95 97 87 82 82 80 71 80 80 87 95 96
Wind_Direction_500mb
127 120 114 107 104 103 103 102 102 105 107 109 111 115 122 139 178 222 254 280 288 290 288 285 283 280 272 269 270 273 276 277
135 128 121 115 110 103 102 101 101 101 101 107 110 112 111 103 83 21 336 311 302 298 297 295 294 286 281 279 277 276 275 277
136 131 127 119 111 102 97 92 85 82 78 71 69 67 52 28 4 351 340 334 324 315 306 297 293 288 284 284 280 282 281 278
143 137 128 115 100 86 76 58 40 9 343 329 320 318 320 321 321 321 319 317 314 312 308 306 302 296 291 287 283 277 273 274
151 144 140 136 113 11 357 339 322 325 316 313 313 314 313 314 314 314 315 314 312 309 307 304 301 298 295 291 286 281 277 275
163 165 174 206 282 277 301 309 297 315 322 313 315 313 310 310 311 311 311 310 308 306 303 302 301 300 294 288 285 284 282 279
169 179 199 252 294 307 306 310 315 316 319 321 312 314 314 313 314 314 312 310 308 307 305 304 303 303 302 298 290 283 281 281
179 197 242 290 307 310 316 322 324 328 328 327 323 324 326 326 323 321 319 319 318 318 318 319 319 319 315 310 302 295 290 287
186 226 284 307 315 319 326 329 335 339 341 339 338 340 339 338 336 331 330 329 327 326 325 325 327 328 325 321 316 309 303 300
199 230 292 321 330 333 336 343 348 349 348 346 343 341 339 339 337 336 332 331 330 329 328 328 329 332 328 322 317 312 308 306
190 211 334 346 347 346 347 352 352 352 351 349 344 340 338 337 335 333 331 329 329 327 327 328 329 333 332 331 323 315 314 310
159 160 19 358 355 355 352 351 350 346 344 342 339 335 333 332 331 329 326 324 324 322 324 327 331 332 332 331 325 318 311 307
139 108 34 5 356 351 346 343 340 338 336 333 332 331 329 327 326 324 324 323 323 322 322 325 327 328 330 330 321 310 302 303
119 72 14 358 351 345 339 335 332 330 329 328 327 326 325 324 324 324 325 324 324 324 322 322 324 324 327 327 319 309 302 296
90 37 2 348 340 334 331 329 328 327 327 327 324 323 322 321 321 320 321 322 321 320 320 319 318 321 324 322 316 310 305 302
28 346 339 338 334 330 326 324 323 323 324 324 323 322 320 318 318 317 316 319 316 312 312 311 311 313 312 310 309 307 304 303
326 325 328 329 325 324 324 324 325 326 328 328 325 323 321 319 316 313 311 312 312 308 306 306 302 307 312 311 309 306 307 304
315 323 327 328 328 327 326 327 328 329 329 328 326 325 323 321 320 318 318 317 314 315 313 308 309 310 312 316 316 311 308 301
323 323 327 329 329 331 331 330 330 330 330 328 327 327 326 324 321 320 319 319 320 321 320 319 316 315 318 321 319 318 318 310
322 323 328 333 337 336 334 334 334 332 332 329 326 325 322 320 319 317 317 318 319 321 323 328 326 322 319 324 331 328 322 319
Wind_Speed_850mb
42 41 40 41 42 41 40 40 39 34 30 26 22 17 12 8 5 5 8 12 18 23 30 36 41 41 42 48 48 51 60 64
45 40 38 36 34 34 33 31 30 28 26 22 20 17 12 9 5 4 7 12 18 22 26 30 31 34 39 45 48 52 55 62
42 36 31 27 26 24 22 19 17 15 12 9 8 6 6 7 10 13 17 20 25 28 30 32 35 37 41 45 47 51 59 64
35 28 23 18 14 12 11 9 8 6 6 9 12 15 18 22 26 30 34 37 40 41 42 43 43 43 42 45 48 52 59 61
29 21 15 10 3 3 7 10 13 16 17 20 25 28 33 38 43 48 54 58 60 62 62 59 56 50 50 50 52 57 59 62
25 17 11 4 4 9 18 16 15 23 24 28 34 39 42 47 51 57 63 67 70 70 67 65 64 60 56 55 58 63 68 69
20 13 7 4 5 9 14 19 23 25 31 30 40 44 47 51 57 62 64 64 65 65 65 62 60 59 60 62 64 67 73 80
15 8 5 6 10 15 18 22 26 31 36 41 42 42 43 45 48 51 53 55 57 59 62 64 64 63 62 60 65 71 75 80
10 4 5 8 11 14 18 22 26 29 33 36 40 45 48 47 49 51 55 58 62 62 63 67 68 68 69 72 75 78 80 83
8 5 4 8 12 15 18 21 23 26 31 38 45 48 52 55 58 60 62 62 64 66 69 70 69 67 67 70 75 80 85 88
7 3 3 8 11 14 18 24 29 34 39 43 48 52 56 58 61 64 68 72 73 74 72 73 74 70 70 70 72 83 90 94
8 4 4 9 13 17 23 29 34 40 44 47 51 56 61 63 66 71 74 76 77 81 81 81 81 83 80 76 70 72 83 90
9 5 6 12 16 21 27 33 38 43 48 52 57 63 68 73 74 76 79 84 87 90 92 88 87 86 89 88 71 65 70 84
9 6 9 17 24 30 35 41 46 51 57 62 65 69 72 78 82 85 84 87 93 96 100 102 97 97 93 91 76 67 72 82
7 7 12 19 26 34 42 50 57 63 67 71 76 79 80 81 83 87 88 88 89 92 98 105 106 102 97 92 99 97 90 89
3 9 16 24 32 40 48 54 60 65 70 74 78 82 86 85 86 87 84 81 81 80 85 94 110 101 84 93 100 104 100 97
9 16 22 27 34 41 48 54 60 67 71 74 79 82 85 89 95 85 85 82 77 73 72 83 85 100 92 90 94 100 99 101
15 21 26 30 35 42 47 54 60 68 72 76 78 81 84 86 89 101 96 85 79 77 73 73 83 86 93 93 96 96 91 87
18 23 29 33 38 42 49 55 60 66 69 73 75 77 80 83 87 89 96 104 99 86 81 78 76 79 86 84 90 97 89 82
20 25 30 36 40 46 51 56 59 62 65 67 69 71 72 75 78 81 86 90 95 97 87 82 82 80 71 80 80 87 95 96
Wind_Direction_850mb
127 120 114 107 104 103 103 102 102 105 107 109 111 115 122 139 178 222 254 280 288 290 288 285 283 280 272 269 270 273 276 277
135 128 121 115 110 103 102 101 101 101 101 107 110 112 111 103 83 21 336 311 302 298 297 295 294 286 281 279 277 276 275 277
136 131 127 119 111 102 97 92 85 82 78 71 69 67 52 28 4 351 340 334 324 315 306 297 293 288 284 284 280 282 281 278
143 137 128 115 100 86 76 58 40 9 343 329 320 318 320 321 321 321 319 317 314 312 308 306 302 296 291 287 283 277 273 274
151 144 140 136 113 11 357 339 322 325 316 313 313 314 313 314 314 314 315 314 312 309 307 304 301 298 295 291 286 281 277 275
163 165 174 206 282 277 301 309 297 315 322 313 315 313 310 310 311 311 311 310 308 306 303 302 301 300 294 288 285 284 282 279
169 179 199 252 294 307 306 310 315 316 319 321 312 314 314 313 314 314 312 310 308 307 305 304 303 303 302 298 290 283 281 281
179 197 242 290 307 310 316 322 324 328 328 327 323 324 326 326 323 321 319 319 318 318 318 319 319 319 315 310 302 295 290 287
186 226 284 307 315 319 326 329 335 339 341 339 338 340 339 338 336 331 330 329 327 326 325 325 327 328 325 321 316 309 303 300
199 230 292 321 330 333 336 343 348 349 348 346 343 341 339 339 337 336 332 331 330 329 328 328 329 332 328 322 317 312 308 306
190 211 334 346 347 346 347 352 352 352 351 349 344 340 338 337 335 333 331 329 329 327 327 328 329 333 332 331 323 315 314 310
159 160 19 358 355 355 352 351 350 346 344 342 339 335 333 332 331 329 326 324 324 322 324 327 331 332 332 331 325 318 311 307
139 108 34 5 356 351 346 343 340 338 336 333 332 331 329 327 326 324 324 323 323 322 322 325 327 328 330 330 321 310 302 303
119 72 14 358 351 345 339 335 332 330 329 328 327 326 325 324 324 324 325 324 324 324 322 322 324 324 327 327 319 309 302 296
90 37 2 348 340 334 331 329 328 327 327 327 324 323 322 321 321 320 321 322 321 320 320 319 318 321 324 322 316 310 305 302
28 346 339 338 334 330 326 324 323 323 324 324 323 322 320 318 318 317 316 319 316 312 312 311 311 313 312 310 309 307 304 303
326 325 328 329 325 324 324 324 325 326 328 328 325 323 321 319 316 313 311 312 312 308 306 306 302 307 312 311 309 306 307 304
315 323 327 328 328 327 326 327 328 329 329 328 326 325 323 321 320 318 318 317 314 315 313 308 309 310 312 316 316 311 308 301
323 323 327 329 329 331 331 330 330 330 330 328 327 327 326 324 321 320 319 319 320 321 320 319 316 315 318 321 319 318 318 310
322 323 328 333 337 336 334 334 334 332 332 329 326 325 322 320 319 317 317 318 319 321 323 328 326 322 319 324 331 328 322 319